Cork Airport

Airport
ICAO code: 
EICK
IATA Code: 
ORK
Summary
ICAO Region: 
EUR
Territory: 
Location: 
Cork, County Cork
Serving: 
Cork
Elevation: 
502 ft
Coordinates: 
Aerial View: 
51° 50' 29" N, 8° 29' 28" W
Metar
Observation
EICK 070330Z 15023G35KT 6000 -RA FEW008 BKN010 BKN018 07/06 Q0993 TEMPO BKN008
Station
Cork Airport
Date/Time
2021-12-07 03:30:00
Wind direction
150°
Wind speed
23 kts
Lowest cloud amount
few clouds
Temperature
7°C
Dew point
6°C
Humidity
93%
QNH
993 hPa
Weather condition
n/a

Description

International airport serving Cork.

Climatology

Temperate Marine climate/Oceanic climate (Köppen climate classification Cfb). Moderately cool summer and comparatively warm winter with a temperature range of only 14°C. Prevailing south-westerly winds from the Atlantic Ocean.

Runways

Designator Length Width Surface Rops
7/25 1310 45 PEM Yes/Yes
17/35 2133 45 ASP Yes/Yes
Airport map: 
Aerial View: 

Accidents and Serious Incidents at or in the vicinity of EICK

SKYbrary Partners:

Safety knowledge contributed by: